This demonstration page uses our WeatherBlox Daily Observations layout. Learn more.

Left ArrowRight Arrow

Hourly Observations for February 8, 2015

Temp ( °F °C ) Dew Point ( °F °C ) Humidity (%) Winds ( mph kmh ) Pressure ( in mb ) Visibility ( mi km ) Precip ( " mm )
12:15 am 00:15 Clear 54 12 30 -1 41 41 W 13 20 29.71 1006 10 16 0.00 0.00
12:35 am 00:35 Clear 54 12 30 -1 41 41 W 15 24 29.71 1006 10 16 0.00 0.00
12:55 am 00:55 Clear 52 11 30 -1 44 44 WNW 14 22 29.71 1006 10 16 0.00 0.00
1:15 am 01:15 Clear 54 12 30 -1 41 41 WNW 15 24 29.71 1006 10 16 0.00 0.00
1:35 am 01:35 Clear 54 12 30 -1 41 41 WNW 15 24 29.71 1006 10 16 0.00 0.00
1:55 am 01:55 Clear 54 12 28 -2 38 38 W 18 30 29.71 1006 10 16 0.00 0.00
2:15 am 02:15 Clear 54 12 30 -1 41 41 W 17 28 29.74 1007 10 16 0.00 0.00
2:35 am 02:35 Clear 54 12 30 -1 41 41 W 18 30 29.74 1007 10 16 0.00 0.00
2:55 am 02:55 Clear 54 12 30 -1 41 41 W 18 30 29.74 1007 10 16 0.00 0.00
3:15 am 03:15 Clear 52 11 30 -1 44 44 W 17 28 29.74 1007 10 16 0.00 0.00
3:35 am 03:35 Clear 50 10 30 -1 47 47 WNW 16 26 29.77 1008 10 16 0.00 0.00
3:55 am 03:55 Clear 46 8 30 -1 53 53 NW 15 24 29.80 1009 10 16 0.00 0.00
4:15 am 04:15 Clear 46 8 32 0 57 57 WNW 12 19 29.80 1009 10 16 0.00 0.00
4:35 am 04:35 Clear 45 7 32 0 61 61 WNW 12 19 29.83 1010 10 16 0.00 0.00
4:55 am 04:55 Clear 45 7 32 0 61 61 WNW 10 17 29.83 1010 10 16 0.00 0.00
5:15 am 05:15 Clear 41 5 32 0 70 70 WNW 9 15 29.85 1011 10 16 0.00 0.00
5:35 am 05:35 Clear 41 5 32 0 70 70 WNW 9 15 29.85 1011 10 16 0.00 0.00
5:55 am 05:55 Clear 43 6 32 0 66 66 W 9 15 29.88 1012 10 16 0.00 0.00
6:15 am 06:15 Clear 41 5 30 -1 66 66 W 13 20 29.88 1012 10 16 0.00 0.00
6:35 am 06:35 Clear 39 4 30 -1 70 70 W 9 15 29.91 1013 10 16 0.00 0.00
6:55 am 06:55 Clear 39 4 30 -1 70 70 WNW 9 15 29.91 1013 10 16 0.00 0.00
7:15 am 07:15 Clear 39 4 30 -1 70 70 W 9 15 29.91 1013 10 16 0.00 0.00
7:35 am 07:35 Clear 39 4 30 -1 70 70 W 8 13 29.91 1013 10 16 0.00 0.00
7:55 am 07:55 Sunny 39 4 30 -1 70 70 WNW 9 15 29.91 1013 10 16 0.00 0.00
8:15 am 08:15 Sunny 39 4 30 -1 70 70 WNW 9 15 29.91 1013 10 16 0.00 0.00
8:35 am 08:35 Sunny 39 4 32 0 75 75 W 6 9 29.91 1013 10 16 0.00 0.00
8:55 am 08:55 Sunny 45 7 34 1 66 66 W 6 9 29.94 1014 10 16 0.00 0.00
9:15 am 09:15 Sunny 45 7 34 1 66 66 WNW 10 17 29.94 1014 10 16 0.00 0.00
9:35 am 09:35 Sunny 48 9 36 2 62 62 WNW 12 19 29.91 1013 10 16 0.00 0.00
9:55 am 09:55 Sunny 52 11 36 2 54 54 WNW 10 17 29.88 1012 10 16 0.00 0.00
10:15 am 10:15 Sunny 54 12 36 2 51 51 W 9 15 29.88 1012 10 16 0.00 0.00
10:35 am 10:35 Sunny 57 14 36 2 44 44 W 12 19 29.88 1012 10 16 0.00 0.00
10:55 am 10:55 Sunny 57 14 36 2 44 44 WNW 13 20 29.88 1012 10 16 0.00 0.00
11:15 am 11:15 Sunny 57 14 36 2 44 44 NW 15 24 29.88 1012 10 16 0.00 0.00
11:35 am 11:35 Sunny 59 15 36 2 42 42 NW 15 24 29.85 1011 10 16 0.00 0.00
11:55 am 11:55 Sunny 59 15 37 3 45 45 NW 14 22 29.88 1012 10 16 0.00 0.00
12:15 pm 12:15 Sunny 59 15 37 3 45 45 NW 13 20 29.88 1012 10 16 0.00 0.00
12:35 pm 12:35 Sunny 61 16 37 3 42 42 WNW 15 24 29.85 1011 10 16 0.00 0.00
12:55 pm 12:55 Sunny 61 16 37 3 42 42 NW 12 19 29.85 1011 10 16 0.00 0.00
1:15 pm 13:15 Sunny 61 16 37 3 42 42 NW 14 22 29.88 1012 10 16 0.00 0.00
1:35 pm 13:35 Sunny 61 16 37 3 42 42 NW 12 19 29.88 1012 10 16 0.00 0.00
1:55 pm 13:55 Sunny 61 16 37 3 42 42 NW 12 19 29.88 1012 10 16 0.00 0.00
2:15 pm 14:15 Sunny 63 17 37 3 39 39 WNW 17 28 29.85 1011 10 16 0.00 0.00
2:35 pm 14:35 Sunny 63 17 36 2 37 37 NW 15 24 29.85 1011 10 16 0.00 0.00
2:55 pm 14:55 Sunny 63 17 36 2 37 37 NW 16 26 29.85 1011 10 16 0.00 0.00
3:15 pm 15:15 Sunny 64 18 36 2 34 34 NNW 13 20 29.85 1011 10 16 0.00 0.00
3:35 pm 15:35 Sunny 64 18 36 2 34 34 NW 15 24 29.85 1011 10 16 0.00 0.00
3:55 pm 15:55 Sunny 64 18 34 1 32 32 NW 13 20 29.85 1011 10 16 0.00 0.00
4:15 pm 16:15 Sunny 64 18 36 2 34 34 NW 16 26 29.88 1012 10 16 0.00 0.00
4:35 pm 16:35 Sunny 64 18 34 1 32 32 NNW 17 28 29.88 1012 10 16 0.00 0.00
4:55 pm 16:55 Sunny 63 17 34 1 34 34 NNW 15 24 29.88 1012 10 16 0.00 0.00
5:15 pm 17:15 Sunny 61 16 36 2 39 39 NNW 10 17 29.91 1013 10 16 0.00 0.00
5:35 pm 17:35 Sunny 61 16 34 1 36 36 NNW 12 19 29.91 1013 10 16 0.00 0.00
5:55 pm 17:55 Sunny 57 14 34 1 41 41 NW 10 17 29.94 1014 10 16 0.00 0.00
6:15 pm 18:15 Clear 54 12 34 1 47 47 NW 9 15 29.97 1015 10 16 0.00 0.00
6:35 pm 18:35 Clear 52 11 34 1 50 50 NW 9 15 30.00 1016 10 16 0.00 0.00
6:55 pm 18:55 Clear 48 9 34 1 58 58 WNW 7 11 30.00 1016 10 16 0.00 0.00
7:15 pm 19:15 Clear 45 7 32 0 61 61 WNW 9 15 30.06 1018 10 16 0.00 0.00
7:35 pm 19:35 Clear 45 7 32 0 61 61 NW 7 11 30.06 1018 10 16 0.00 0.00
7:55 pm 19:55 Clear 46 8 32 0 57 57 NNW 8 13 30.06 1018 10 16 0.00 0.00
8:15 pm 20:15 Clear 46 8 32 0 57 57 N 10 17 30.09 1019 10 16 0.00 0.00
8:35 pm 20:35 Clear 43 6 34 1 71 71 NNE 8 13 30.09 1019 10 16 0.00 0.00
8:55 pm 20:55 Clear 43 6 34 1 71 71 NNE 6 9 30.12 1020 10 16 0.00 0.00
9:15 pm 21:15 Clear 43 6 34 1 71 71 N 3 6 30.12 1020 10 16 0.00 0.00
9:35 pm 21:35 Clear 43 6 34 1 71 71 NNW 6 9 30.12 1020 10 16 0.00 0.00
9:55 pm 21:55 Clear 39 4 34 1 81 81 NW 6 9 30.18 1022 10 16 0.00 0.00
10:15 pm 22:15 Clear 37 3 34 1 87 87 NNW 6 9 30.18 1022 10 16 0.00 0.00
10:35 pm 22:35 Clear 39 4 34 1 81 81 N 7 11 30.18 1022 10 16 0.00 0.00
10:55 pm 22:55 Clear 37 3 34 1 87 87 Calm 30.18 1022 10 16 0.00 0.00
11:15 pm 23:15 Clear 37 3 32 0 81 81 Calm 30.18 1022 10 16 0.00 0.00
11:35 pm 23:35 Clear 37 3 32 0 81 81 N 3 6 30.18 1022 10 16 0.00 0.00
11:55 pm 23:55 Clear 36 2 30 -1 81 81 Calm 30.21 1023 10 16 0.00 0.00

Powered by AerisWeather